Retour au catalogue

SCOUT B-1 R/B

ActifSSO
NORAD 8861·ROCKET BODY·🇺🇸 United States

Lancé May 22, 1976 depuis Vandenberg Space Force Base

Loading…

Prochains Passages (prochaines 24 heures)

TLE

FraisSource: Space-Track

Époque: Sep 14, 2026, 21:16 UTC

1 08861U 76047B   26257.88616029  .00000004  00000-0  61184-4 0  9997
2 08861  99.8365 124.6902 0040939 289.1396  96.9142 13.66776623506786

Suivez SCOUT B-1 R/B en temps réel avec AllMySat

Download on the App Store